| time (UTC) | temp C | wind direction | speed KPH | gust KPH | rain 1hr cm | rain 24hr cm | rain mn cm | humidity % | barometer mb |
| 20260904222515 | 26 | 0 | 8.0 | 0.0 | 0.61 | 0.71 | 0.61 | 45 | |
| 20260904221515 | 26 | 0 | 3.2 | 0.0 | 0.61 | 0.71 | 0.61 | 46 | |
| 20260904220515 | 26 | 0 | 4.8 | 0.0 | 0.00 | 0.10 | 0.00 | 47 | |
| 20260904043945 | 16 | 0 | 0.0 | 0.0 | 0.10 | 0.10 | 0.10 | 99 | |
| 20260904042945 | 16 | 0 | 0.0 | 0.0 | 0.08 | 0.08 | 0.08 | 99 | |
| 20260904041915 | 16 | 0 | 0.0 | 0.0 | 0.05 | 0.05 | 0.05 | 97 | |
| 20260904040915 | 16 | 0 | 1.6 | 0.0 | 0.03 | 0.03 | 0.03 | 97 | |
| 20260904035845 | 16 | 0 | 0.0 | 0.0 | 0.03 | 0.03 | 0.03 | 97 | |
| 20260904034845 | 16 | 0 | 0.0 | 0.0 | 0.00 | 0.00 | 0.00 | 96 | |
| 20260904033815 | 16 | 0 | 0.0 | 0.0 | 0.00 | 0.00 | 0.00 | 95 | |
| 20260904032745 | 16 | 0 | 0.0 | 0.0 | 0.00 | 0.00 | 0.00 | 93 | |
| 20260904031715 | 16 | 0 | 0.0 | 0.0 | 0.00 | 0.00 | 0.00 | 93 | |
| 20260904030715 | 17 | 0 | 1.6 | 0.0 | 0.00 | 0.00 | 0.00 | 91 | |
| 20260904025715 | 17 | 0 | 3.2 | 0.0 | 0.00 | 0.00 | 0.00 | 88 | |
| 20260904024715 | 17 | 0 | 4.8 | 0.0 | 0.00 | 0.00 | 0.00 | 87 | |
| 20260904023645 | 17 | 0 | 4.8 | 0.0 | 0.00 | 0.00 | 0.00 | 86 | |
| 20260904022615 | 17 | 0 | 3.2 | 0.0 | 0.00 | 0.00 | 0.00 | 85 | |
| 20260904021615 | 18 | 0 | 4.8 | 0.0 | 0.00 | 0.00 | 0.00 | 84 | |
| 20260904020545 | 18 | 0 | 1.6 | 0.0 | 0.00 | 0.00 | 0.00 | 82 | |
| 20260904015545 | 18 | 0 | 6.4 | 0.0 | 0.00 | 0.00 | 0.00 | 80 | |
| 20260904014545 | 18 | 0 | 1.6 | 0.0 | 0.00 | 0.00 | 0.00 | 79 | |
| 20260904013515 | 19 | 0 | 3.2 | 0.0 | 0.00 | 0.00 | 0.00 | 78 | |
| 20260904012515 | 19 | 0 | 4.8 | 0.0 | 0.00 | 0.00 | 0.00 | 77 | |
| 20260904011445 | 19 | 0 | 9.7 | 0.0 | 0.00 | 0.00 | 0.00 | 76 | |
| 20260904010445 | 20 | 0 | 6.4 | 0.0 | 0.00 | 0.00 | 0.00 | 75 | |
| 20260904005445 | 20 | 0 | 3.2 | 0.0 | 0.00 | 0.00 | 0.00 | 75 |